Location: Windsor
(43.2292°N, 89.3015°W)
Time: 06:12:32
(UTC+00:00)

First-Move - Pass Details

Date: 30 June 2022
Orbit: 572 x 658 km, 97.6° (Epoch: 11 August)

Event Time Altitude Azimuth Distance (km) Brightness Sun altitude
Rises 08:56:46 0° 29° (NNE) 2,947 ? -12.3°
Reaches altitude 10° 08:59:37 10° 49° (NE) 2,047 ? -11.9°
Maximum altitude 09:02:40 18° 92° (E) 1,592 ? -11.6°
Drops below altitude 10° 09:05:45 10° 135° (SE) 2,059 ? -11.2°
Sets 09:08:36 0° 154° (SSE) 2,972 ? -10.8°
